[[{"header":{"parameterUnit":"m.s-1","parameterCategory":2,"la1":30.2991,"la2":30.254,"lo1":-89.0895,"lo2":-89.0444,"dy":0.0017,"dx":0.0017,"nx":28,"ny":28,"refTime":"2026-01-03T03:00:00:Z","depth":"0","parameterNumber":2,"parameterNumberName":"U-component_of_CURRENTS"},"data":[0,0,0,0,0,0,0,0,0,0,0,0,0,0,0,0,0,0,0,0,0,0,0,0,0,0,0,0,0,0,0,0,0,0,0,0,0,0,0,0,0,0,0,0,0,0,0,0,0,0,0,0,0,0,0,0,0,0,-0.2581,-0.2582,0,-0.2623,-0.2623,-0.2623,-0.2599,-0.2598,-0.2597,-0.2596,-0.2573,-0.2573,-0.2573,0,0,0,0,0,0,0,0,0,0,0,0,0,-0.2485,-0.2486,-0.2581,-0.2582,-0.2583,-0.2623,-0.2623,-0.2624,-0.2599,-0.2598,-0.2597,-0.2596,-0.2572,-0.2573,-0.2573,0,0,0,0,0,0,0,0,0,0,0,0,0,-0.2524,-0.2487,-0.2581,-0.2577,-0.2577,-0.2623,-0.2623,-0.2624,-0.2599,-0.2598,-0.2596,-0.2595,-0.2572,-0.2573,-0.2573,-0.2604,0,0,-0.2574,-0.2575,0,0,0,0,0,0,0,0,-0.2522,-0.2527,-0.2577,-0.2578,-0.2578,-0.2606,-0.2581,-0.2615,-0.26,-0.2588,-0.2596,-0.2594,-0.2581,-0.258,-0.2589,-0.2603,-0.2602,-0.2574,-0.2575,-0.2575,-0.2575,0,0,0,0,0,0,0,-0.2519,-0.2526,-0.2595,-0.2578,-0.2579,-0.2575,-0.2579,-0.2587,-0.2589,-0.2589,-0.2588,-0.2597,-0.258,-0.2588,-0.2588,-0.2602,-0.2574,-0.2575,-0.2575,-0.2575,-0.2631,-0.2632,0,0,0,0,0,0,-0.2521,-0.2523,-0.2594,-0.2597,-0.2549,-0.2578,-0.2582,-0.2597,-0.259,-0.2589,-0.2598,-0.2596,-0.2588,-0.2587,-0.2587,-0.2614,-0.2575,-0.2575,-0.2575,-0.2629,-0.2631,-0.2632,0,0,0,0,0,0,-0.2519,-0.2527,-0.2592,-0.2562,-0.2571,-0.2581,-0.2598,-0.2598,-0.2601,-0.2598,-0.2595,-0.26,-0.2587,-0.2586,-0.2596,-0.2613,-0.2575,-0.2576,-0.2628,-0.263,-0.2632,-0.2675,0,0,0,0,0,0,-0.2516,-0.2526,-0.2532,-0.2563,-0.2572,-0.2623,-0.26,-0.26,-0.261,-0.2607,-0.2599,-0.2596,-0.2586,-0.2596,-0.2597,-0.2613,-0.2576,-0.2626,-0.2629,-0.2631,-0.2672,-0.2678,-0.2683,0,0,0,0,0,-0.2512,-0.253,-0.2532,-0.254,-0.2582,-0.2624,-0.2629,-0.2629,-0.2612,-0.2623,-0.2615,-0.2596,-0.2611,-0.2598,-0.2598,-0.2615,-0.2625,-0.2628,-0.2631,-0.267,-0.2677,-0.2683,0,0,0,0,0,0,-0.2487,-0.2531,-0.2533,-0.2561,-0.2592,-0.2621,-0.2629,-0.2633,-0.2637,-0.2628,-0.2613,-0.2611,-0.2627,-0.2619,-0.2605,-0.2639,-0.2615,-0.2618,-0.2644,-0.2651,-0.2656,-0.2652,-0.2576,0,0,0,0,0,-0.2487,-0.251,-0.2552,-0.2571,-0.2588,-0.2608,-0.2622,-0.263,-0.2642,-0.2642,-0.2637,-0.2634,-0.2643,-0.2643,-0.265,-0.267,-0.2642,-0.2681,-0.2687,-0.2692,-0.2689,-0.2675,-0.2678,-0.2641,-0.2641,-0.2641,0,0,-0.248,-0.2508,-0.2518,-0.2567,-0.2585,-0.2623,-0.2612,-0.2641,-0.2665,-0.264,-0.2657,-0.2655,-0.2654,-0.2676,-0.2682,-0.2668,-0.2686,-0.2695,-0.2699,-0.2694,-0.2678,-0.2681,-0.2684,-0.2643,-0.2643,-0.2642,0,0,-0.2488,-0.2506,-0.2531,-0.2564,-0.2606,-0.2627,-0.2637,-0.2672,-0.2677,-0.2706,-0.2692,-0.2699,-0.2712,-0.2715,-0.2718,-0.276,-0.2718,-0.2764,-0.2785,-0.2772,-0.2774,-0.2776,-0.2732,-0.273,-0.2764,-0.2764,-0.2764,0,-0.2475,-0.2515,-0.2544,-0.2584,-0.2608,-0.2631,-0.2667,-0.269,-0.2721,-0.2727,-0.2714,-0.2733,-0.2731,-0.2754,-0.277,-0.2772,-0.2745,-0.2758,-0.2778,-0.2779,-0.278,-0.2735,-0.2732,-0.2766,-0.2766,-0.2766,-0.2766,0,-0.2507,-0.2541,-0.2559,-0.2616,-0.265,-0.2683,-0.2728,-0.2751,-0.2756,-0.2772,-0.2791,-0.279,-0.2795,-0.2804,-0.28,-0.2816,-0.2787,-0.2787,-0.2756,-0.2786,-0.2737,-0.2732,-0.277,-0.2769,-0.2768,-0.2768,0,0,-0.2466,-0.2562,-0.2565,-0.2597,-0.2668,-0.2698,-0.2747,-0.2792,-0.2808,-0.283,-0.2841,-0.2865,-0.2852,-0.2855,-0.2849,-0.2842,-0.2827,-0.282,-0.2818,-0.2768,-0.2771,-0.2662,-0.2646,-0.2828,-0.2828,-0.2828,-0.2728,0,-0.2474,-0.2546,-0.2596,-0.2656,-0.2694,-0.2742,-0.2785,-0.2828,-0.2847,-0.2866,-0.2869,-0.2878,-0.2876,-0.2871,-0.2869,-0.2842,-0.282,-0.2852,-0.2756,-0.2753,-0.2646,-0.264,-0.2518,-0.2412,-0.2723,-0.2723,-0.2722,0,-0.2479,-0.253,-0.2592,-0.2677,-0.2696,-0.2735,-0.2791,-0.2833,-0.2875,-0.2889,-0.2901,-0.2899,-0.2902,-0.2888,-0.2848,-0.2867,-0.2822,-0.2793,-0.2788,-0.2667,-0.2636,-0.2436,-0.2392,-0.238,-0.2715,-0.2716,-0.2716,0,-0.2421,-0.252,-0.2562,-0.2594,-0.2697,-0.2724,-0.2768,-0.2827,-0.2858,-0.289,-0.2901,-0.2908,-0.2894,-0.2863,-0.2805,-0.2828,-0.2734,-0.2757,-0.2609,-0.26,-0.2467,-0.2445,-0.2391,-0.2712,-0.2712,-0.2713,-0.2713,0,-0.2403,-0.2433,-0.2538,-0.2561,-0.2607,-0.2689,-0.2732,-0.2775,-0.2834,-0.2851,-0.2896,-0.2884,-0.2888,-0.2839,-0.2795,-0.2669,-0.272,-0.2598,-0.2567,-0.2476,-0.2458,-0.2418,-0.2465,-0.2709,-0.271,-0.271,-0.2711,0,-0.2322,-0.2396,-0.2448,-0.2551,-0.2581,-0.2605,-0.2708,-0.274,-0.2802,-0.282,-0.2828,-0.2858,-0.2782,-0.2752,-0.2676,-0.2629,-0.2488,-0.2476,-0.2351,-0.2307,-0.2169,-0.2223,-0.2151,-0.2091,-0.2307,-0.2304,-0.2301,0,-0.2283,-0.2303,-0.2409,-0.244,-0.2482,-0.2546,-0.2594,-0.2697,-0.2733,-0.2778,-0.2773,-0.2729,-0.2641,-0.2496,-0.2401,-0.2275,-0.2325,-0.2121,-0.2149,-0.2125,-0.2165,-0.223,-0.2191,-0.1987,-0.1981,-0.1977,-0.1974,0,-0.2191,-0.2228,-0.2267,-0.2341,-0.2395,-0.246,-0.2532,-0.2547,-0.2644,-0.2636,-0.2574,-0.2498,-0.2381,-0.2188,-0.2065,-0.1993,-0.2081,-0.2029,-0.2044,-0.1933,-0.1961,-0.1899,-0.2084,-0.1936,-0.194,-0.1943,-0.1945,-0.1946,-0.2096,-0.2099,-0.2158,-0.2213,-0.2281,-0.2317,-0.225,-0.2317,-0.2291,-0.2178,-0.2307,-0.211,-0.2057,-0.1841,-0.177,-0.1653,-0.1769,-0.1634,-0.1705,-0.1776,-0.1709,-0.1792,-0.1591,-0.1593,-0.1594,-0.1596,-0.1597,0,-0.1964,-0.1989,-0.2034,-0.2054,-0.2042,-0.2145,-0.2154,-0.2024,-0.1851,-0.1838,-0.1731,-0.1667,-0.1527,-0.1501,-0.1433,-0.137,-0.1372,-0.137,-0.1454,-0.1432,-0.1513,-0.1487,-0.1205,-0.1205,-0.1205,-0.1205,-0.1205,-0.1205,-0.1896,-0.1882,-0.1914,-0.1818,-0.1806,-0.1672,-0.1606,-0.1448,-0.1359,-0.1157,-0.1077,-0.1063,-0.1218,-0.1428,-0.1372,-0.1298,-0.1314,-0.1266,-0.1332,-0.1422,-0.1453,-0.1484,-0.1469,-0.1188,-0.1188,-0.1176,-0.1176,-0.1176]},{"header":{"parameterUnit":"m.s-1","parameterCategory":2,"la1":30.2991,"la2":30.254,"lo1":-89.0895,"lo2":-89.0444,"dy":0.0017,"dx":0.0017,"nx":28,"ny":28,"refTime":"2026-01-03T03:00:00:Z","depth":"0","parameterNumber":3,"parameterNumberName":"V-component_of_CURRENTS"},"data":[0,0,0,0,0,0,0,0,0,0,0,0,0,0,0,0,0,0,0,0,0,0,0,0,0,0,0,0,0,0,0,0,0,0,0,0,0,0,0,0,0,0,0,0,0,0,0,0,0,0,0,0,0,0,0,0,0,0,-0.012,-0.0119,0,-0.0033,-0.0032,-0.0031,0.0035,0.0035,0.0036,0.0036,0.0178,0.0181,0.0184,0,0,0,0,0,0,0,0,0,0,0,0,0,-0.017,-0.0169,-0.012,-0.0119,-0.0118,-0.0033,-0.0032,-0.003,0.0035,0.0035,0.0036,0.0036,0.0176,0.018,0.0184,0,0,0,0,0,0,0,0,0,0,0,0,0,-0.012,-0.0169,-0.012,-0.0077,-0.0072,-0.0034,-0.0032,-0.003,0.0035,0.0035,0.0036,0.0037,0.0175,0.018,0.0185,0.0205,0,0,0.0201,0.0203,0,0,0,0,0,0,0,0,-0.0123,-0.0118,-0.0084,-0.008,-0.0075,-0.0011,0.0002,0.005,0.0035,-0.0003,0.0036,0.0037,0.0117,0.0127,0.0145,0.0211,0.0217,0.0201,0.0204,0.0206,0.0208,0,0,0,0,0,0,0,-0.0127,-0.0121,-0.0083,-0.0083,-0.0077,-0.0042,-0.0035,0.0012,0.0056,0.0,0.0004,0.001,0.0121,0.014,0.0149,0.0219,0.0201,0.0205,0.0209,0.0211,0.0321,0.032,0,0,0,0,0,0,-0.0146,-0.0125,-0.0086,-0.0081,-0.0101,-0.0042,-0.0033,-0.003,0.0054,0.0066,0.001,0.0013,0.0131,0.0143,0.0154,0.0184,0.0206,0.0211,0.0214,0.0321,0.032,0.032,0,0,0,0,0,0,-0.0147,-0.0143,-0.0089,-0.0102,-0.0093,-0.0043,-0.0039,-0.0029,-0.001,0.006,0.0074,0.0018,0.0132,0.0147,0.0192,0.019,0.0213,0.0218,0.0321,0.0321,0.032,0.0243,0,0,0,0,0,0,-0.0149,-0.0144,-0.015,-0.0104,-0.0093,-0.0078,-0.0039,-0.0028,-0.0008,-0.0003,0.0072,0.0086,0.0133,0.0184,0.0197,0.0197,0.0222,0.0321,0.0321,0.032,0.0245,0.024,0.0235,0,0,0,0,0,-0.0151,-0.0167,-0.0151,-0.0146,-0.0103,-0.0079,-0.007,-0.003,-0.0009,-0.0009,0.0046,0.0083,0.0192,0.0188,0.0203,0.0205,0.0321,0.0321,0.0321,0.0248,0.0241,0.0235,0,0,0,0,0,0,-0.0193,-0.0161,-0.0142,-0.0147,-0.012,-0.0069,-0.0066,-0.0037,0.0006,0.0014,0.0083,0.01,0.0138,0.0181,0.0175,0.0236,0.0262,0.0265,0.0202,0.0196,0.0191,0.0174,0.0226,0,0,0,0,0,-0.0206,-0.0208,-0.0169,-0.0173,-0.0163,-0.0115,-0.01,-0.0073,-0.0029,-0.001,0.0042,0.0099,0.0149,0.0178,0.0225,0.0259,0.0315,0.0271,0.0265,0.026,0.0258,0.0343,0.0345,0.0319,0.0319,0.0319,0,0,-0.0223,-0.0206,-0.0206,-0.0182,-0.0155,-0.0151,-0.0104,-0.0089,-0.0079,-0.0001,0.0027,0.0081,0.0153,0.019,0.0211,0.0226,0.0296,0.026,0.0255,0.0255,0.0343,0.0346,0.0348,0.0319,0.0319,0.0319,0,0,-0.0264,-0.0243,-0.026,-0.0243,-0.0215,-0.0182,-0.0183,-0.0137,-0.0109,-0.0077,-0.0017,0.0036,0.0104,0.016,0.0197,0.0193,0.0262,0.0203,0.017,0.0253,0.0256,0.0259,0.0325,0.0335,0.0205,0.0204,0.0204,0,-0.0287,-0.0301,-0.0261,-0.0273,-0.0264,-0.0203,-0.0217,-0.018,-0.0125,-0.0097,-0.008,0.0037,0.0094,0.0158,0.0153,0.0183,0.0233,0.0186,0.0246,0.025,0.0255,0.0323,0.0334,0.0201,0.0201,0.0202,0.0202,0,-0.0339,-0.0349,-0.0357,-0.0349,-0.0333,-0.0336,-0.0284,-0.0259,-0.0217,-0.0169,-0.0104,-0.0024,0.005,0.0074,0.0112,0.0171,0.0196,0.0225,0.0259,0.0253,0.0324,0.0338,0.0195,0.0197,0.0198,0.0199,0,0,-0.0395,-0.0396,-0.0399,-0.0409,-0.0375,-0.0368,-0.0346,-0.0302,-0.0275,-0.0212,-0.0169,-0.0083,-0.0028,0.0016,0.0079,0.0147,0.022,0.0189,0.0195,0.0248,0.0392,0.0427,0.0446,0.0259,0.0262,0.0263,0.0425,0,-0.0448,-0.0496,-0.047,-0.05,-0.0519,-0.0455,-0.0437,-0.0383,-0.0318,-0.026,-0.0159,-0.0097,-0.0052,-0.0016,0.0059,0.0185,0.0254,0.0172,0.0395,0.0401,0.0429,0.0462,0.0519,0.067,0.0439,0.0442,0.0444,0,-0.0507,-0.0532,-0.058,-0.0576,-0.0575,-0.0575,-0.0522,-0.0496,-0.0389,-0.0334,-0.0246,-0.0163,-0.0054,-0.0019,0.0191,0.0136,0.0249,0.0345,0.0354,0.0424,0.0462,0.0642,0.0705,0.0886,0.0466,0.0464,0.0462,0,-0.0575,-0.0602,-0.0645,-0.0647,-0.0632,-0.063,-0.0608,-0.0521,-0.0484,-0.0378,-0.0325,-0.019,-0.0101,0.0047,0.0238,0.0219,0.0474,0.0483,0.062,0.0624,0.0736,0.0745,0.0998,0.0627,0.0627,0.0626,0.0626,0,-0.0646,-0.0677,-0.0683,-0.071,-0.0743,-0.0699,-0.0694,-0.0643,-0.0552,-0.0475,-0.0371,-0.0276,-0.0078,0.0091,0.024,0.0481,0.0486,0.0625,0.0676,0.0708,0.0713,0.0926,0.0974,0.0633,0.0631,0.063,0.0629,0,-0.0716,-0.0721,-0.0773,-0.078,-0.0782,-0.0805,-0.0769,-0.0743,-0.065,-0.0544,-0.0511,-0.032,-0.0091,0.0108,0.0379,0.0504,0.0831,0.0791,0.0803,0.0851,0.112,0.1158,0.1426,0.1547,0.0966,0.0968,0.097,0,-0.0759,-0.0795,-0.0838,-0.0867,-0.0876,-0.0893,-0.0887,-0.0809,-0.0746,-0.0547,-0.048,-0.0264,-0.0064,0.0314,0.0561,0.0833,0.0956,0.1034,0.1007,0.1159,0.1241,0.1259,0.1341,0.1129,0.1132,0.1134,0.1136,0,-0.0836,-0.0848,-0.089,-0.0955,-0.0973,-0.0953,-0.0918,-0.0869,-0.0715,-0.0584,-0.0349,-0.019,0.0135,0.0472,0.0783,0.0944,0.1169,0.1087,0.1271,0.141,0.1425,0.1556,0.0979,0.1156,0.1154,0.1153,0.1152,0.1151,-0.0879,-0.0929,-0.0977,-0.1027,-0.1026,-0.0931,-0.086,-0.0755,-0.0585,-0.0274,-0.0214,0.0115,0.0417,0.0864,0.1039,0.1422,0.1359,0.155,0.159,0.1599,0.1702,0.1148,0.1359,0.1358,0.1357,0.1357,0.1356,0,-0.0924,-0.097,-0.1036,-0.1028,-0.0971,-0.0958,-0.0811,-0.0663,-0.0391,-0.0117,0.013,0.0569,0.0958,0.1259,0.1707,0.1923,0.1969,0.2034,0.21,0.2167,0.1726,0.1721,0.1989,0.1989,0.1989,0.1989,0.1988,0.1988,-0.0947,-0.1019,-0.1049,-0.0958,-0.0906,-0.0733,-0.0599,-0.0384,-0.0151,0.0299,0.0637,0.0859,0.1222,0.1886,0.2351,0.2397,0.2603,0.2564,0.2673,0.2384,0.2343,0.2303,0.2315,0.2703,0.2704,0.313,0.3134,0.3137]}],[{"header":{"parameterUnit":"m.s-1","parameterCategory":2,"la1":30.2991,"la2":30.254,"lo1":-89.0895,"lo2":-89.0444,"dy":0.0017,"dx":0.0017,"nx":28,"ny":28,"refTime":"2026-01-03T03:00:00:Z","depth":"2","parameterNumber":2,"parameterNumberName":"U-component_of_CURRENTS"},"data":[0,0,0,0,0,0,0,0,0,0,0,0,0,0,0,0,0,0,0,0,0,0,0,0,0,0,0,0,0,0,0,0,0,0,0,0,0,0,0,0,0,0,0,0,0,0,0,0,0,0,0,0,0,0,0,0,0,0,-0.2486,-0.2486,0,-0.2528,-0.2529,-0.2529,-0.2511,-0.251,-0.2509,-0.2508,-0.2495,-0.2495,-0.2496,0,0,0,0,0,0,0,0,0,0,0,0,0,-0.2391,-0.2393,-0.2485,-0.2486,-0.2487,-0.2528,-0.2529,-0.2529,-0.2511,-0.251,-0.2509,-0.2508,-0.2495,-0.2495,-0.2496,0,0,0,0,0,0,0,0,0,0,0,0,0,-0.2431,-0.2394,-0.2485,-0.2485,-0.2485,-0.2528,-0.2529,-0.2529,-0.2511,-0.251,-0.2509,-0.2507,-0.2495,-0.2495,-0.2496,-0.2524,0,0,-0.2498,-0.2498,0,0,0,0,0,0,0,0,-0.2429,-0.2434,-0.2484,-0.2485,-0.2486,-0.2515,-0.2491,-0.2525,-0.2511,-0.2499,-0.2508,-0.2507,-0.2499,-0.2499,-0.2507,-0.2523,-0.2523,-0.2498,-0.2498,-0.2498,-0.2498,0,0,0,0,0,0,0,-0.2426,-0.2432,-0.25,-0.2485,-0.2486,-0.2484,-0.2487,-0.2497,-0.2502,-0.25,-0.2499,-0.2508,-0.2498,-0.2507,-0.2507,-0.2522,-0.2498,-0.2498,-0.2498,-0.2499,-0.2559,-0.256,0,0,0,0,0,0,-0.2427,-0.243,-0.2499,-0.2501,-0.2456,-0.2486,-0.2491,-0.2505,-0.2503,-0.2503,-0.2509,-0.2507,-0.2506,-0.2506,-0.2506,-0.2539,-0.2498,-0.2499,-0.2499,-0.2557,-0.2559,-0.256,0,0,0,0,0,0,-0.2425,-0.2433,-0.2497,-0.2468,-0.2476,-0.2489,-0.2505,-0.2506,-0.2512,-0.2511,-0.2509,-0.2514,-0.2505,-0.2505,-0.2519,-0.2538,-0.2499,-0.25,-0.2556,-0.2558,-0.2559,-0.2604,0,0,0,0,0,0,-0.2422,-0.2432,-0.2439,-0.2468,-0.2478,-0.2527,-0.2507,-0.2508,-0.2521,-0.2518,-0.2515,-0.2513,-0.2504,-0.2519,-0.252,-0.2538,-0.25,-0.2554,-0.2557,-0.2559,-0.2601,-0.2607,-0.2613,0,0,0,0,0,-0.2419,-0.2436,-0.2439,-0.2447,-0.2488,-0.2529,-0.2534,-0.2537,-0.2522,-0.2534,-0.253,-0.2512,-0.2534,-0.252,-0.2522,-0.254,-0.2553,-0.2556,-0.2559,-0.2599,-0.2606,-0.2613,0,0,0,0,0,0,-0.2396,-0.2438,-0.2441,-0.2469,-0.2498,-0.2526,-0.2536,-0.2541,-0.2549,-0.2542,-0.253,-0.2529,-0.2549,-0.2542,-0.2527,-0.2565,-0.254,-0.2543,-0.257,-0.2577,-0.2583,-0.2578,-0.2501,0,0,0,0,0,-0.2397,-0.2419,-0.2459,-0.2479,-0.2495,-0.2516,-0.2529,-0.2539,-0.2553,-0.2555,-0.2554,-0.2554,-0.2565,-0.2567,-0.2575,-0.2597,-0.2571,-0.261,-0.2616,-0.262,-0.2619,-0.2606,-0.2609,-0.2569,-0.2569,-0.2569,0,0,-0.2391,-0.2418,-0.2428,-0.2475,-0.2493,-0.253,-0.252,-0.255,-0.2575,-0.2553,-0.2576,-0.2576,-0.2576,-0.2601,-0.2609,-0.2594,-0.2617,-0.2624,-0.2628,-0.2623,-0.2609,-0.2612,-0.2616,-0.2571,-0.2571,-0.257,0,0,-0.24,-0.2418,-0.2443,-0.2475,-0.2516,-0.2537,-0.2547,-0.2583,-0.259,-0.2622,-0.2611,-0.2621,-0.2638,-0.2642,-0.2645,-0.2689,-0.265,-0.2693,-0.2716,-0.2704,-0.2707,-0.2709,-0.267,-0.2668,-0.2693,-0.2694,-0.2694,0,-0.239,-0.2428,-0.2455,-0.2493,-0.2518,-0.2542,-0.2577,-0.26,-0.2634,-0.2642,-0.2632,-0.2657,-0.2658,-0.2682,-0.2699,-0.2701,-0.2677,-0.2688,-0.271,-0.2711,-0.2713,-0.2673,-0.267,-0.2696,-0.2696,-0.2696,-0.2695,0,-0.2421,-0.2454,-0.2472,-0.2527,-0.2561,-0.2594,-0.2638,-0.2662,-0.2671,-0.2689,-0.2713,-0.2715,-0.2724,-0.2733,-0.273,-0.2748,-0.2721,-0.2719,-0.2688,-0.2719,-0.2675,-0.2672,-0.27,-0.2699,-0.2698,-0.2697,0,0,-0.2384,-0.2476,-0.2479,-0.251,-0.258,-0.2609,-0.2659,-0.2705,-0.2722,-0.2749,-0.2763,-0.2791,-0.2781,-0.2785,-0.2781,-0.2775,-0.2765,-0.2754,-0.2752,-0.2708,-0.2716,-0.261,-0.2596,-0.2765,-0.2765,-0.2765,-0.2677,0,-0.2394,-0.2463,-0.251,-0.257,-0.2607,-0.2654,-0.2696,-0.2741,-0.2763,-0.2785,-0.2792,-0.2805,-0.2805,-0.2803,-0.2803,-0.2778,-0.276,-0.2788,-0.2699,-0.2696,-0.2592,-0.259,-0.2412,-0.2311,-0.2673,-0.2672,-0.2672,0,-0.24,-0.2449,-0.2509,-0.259,-0.2609,-0.2648,-0.2704,-0.2748,-0.2793,-0.2808,-0.2826,-0.2827,-0.2834,-0.2822,-0.2788,-0.2804,-0.2764,-0.2737,-0.2733,-0.2615,-0.2584,-0.2342,-0.229,-0.2665,-0.2666,-0.2666,-0.2667,0,-0.2347,-0.2441,-0.2484,-0.2514,-0.2613,-0.264,-0.2685,-0.2744,-0.2775,-0.2813,-0.2826,-0.2837,-0.2827,-0.2801,-0.2752,-0.277,-0.2689,-0.2706,-0.2568,-0.2559,-0.2379,-0.2354,-0.2669,-0.2669,-0.2669,-0.2669,-0.2669,0,-0.2331,-0.2361,-0.2461,-0.2484,-0.2528,-0.2609,-0.2651,-0.2696,-0.2756,-0.2776,-0.2824,-0.2816,-0.2822,-0.2781,-0.2743,-0.2627,-0.2678,-0.2558,-0.2529,-0.2388,-0.2366,-0.2658,-0.2657,-0.2666,-0.2666,-0.2667,-0.2668,0,-0.2257,-0.2328,-0.2378,-0.2477,-0.2505,-0.253,-0.2628,-0.2656,-0.2723,-0.2747,-0.2758,-0.2791,-0.2725,-0.2701,-0.2635,-0.259,-0.2508,-0.2452,-0.2272,-0.2222,-0.239,-0.2394,-0.2297,-0.2293,-0.2289,-0.2286,-0.2283,0,-0.2222,-0.2242,-0.2342,-0.2368,-0.2409,-0.247,-0.251,-0.2613,-0.2646,-0.271,-0.2704,-0.2673,-0.2597,-0.2465,-0.2366,-0.2249,-0.2365,-0.2052,-0.2063,-0.2371,-0.2352,-0.2362,-0.237,-0.1837,-0.1831,-0.1826,-0.1822,0,-0.2136,-0.2172,-0.2209,-0.2266,-0.2313,-0.2386,-0.2452,-0.2481,-0.2584,-0.2586,-0.2554,-0.2493,-0.2354,-0.2136,-0.201,-0.1937,-0.2063,-0.1946,-0.2298,-0.1965,-0.1931,-0.1916,-0.194,-0.1777,-0.1782,-0.1785,-0.1788,-0.1789,-0.2046,-0.2048,-0.2096,-0.2137,-0.2199,-0.2271,-0.2267,-0.2348,-0.2362,-0.2317,-0.2354,-0.2164,-0.2089,-0.1759,-0.1652,-0.1577,-0.1725,-0.1683,-0.1701,-0.1724,-0.1693,-0.1654,-0.1441,-0.1444,-0.1446,-0.1448,-0.1449,0,-0.1919,-0.1936,-0.1966,-0.2011,-0.2004,-0.2117,-0.2188,-0.2109,-0.2056,-0.2051,-0.1964,-0.1667,-0.1501,-0.1424,-0.1221,-0.1193,-0.1207,-0.1167,-0.1197,-0.124,-0.1279,-0.123,-0.0853,-0.0851,-0.085,-0.0848,0,0,-0.1852,-0.182,-0.1838,-0.1783,-0.182,-0.1765,-0.1775,-0.1701,-0.1636,-0.1486,-0.1382,-0.1417,-0.1367,-0.1108,-0.1056,-0.0917,-0.1072,-0.087,-0.1345,-0.1422,-0.1459,-0.1568,-0.1538,0,0,0,0,0]},{"header":{"parameterUnit":"m.s-1","parameterCategory":2,"la1":30.2991,"la2":30.254,"lo1":-89.0895,"lo2":-89.0444,"dy":0.0017,"dx":0.0017,"nx":28,"ny":28,"refTime":"2026-01-03T03:00:00:Z","depth":"2","parameterNumber":3,"parameterNumberName":"V-component_of_CURRENTS"},"data":[0,0,0,0,0,0,0,0,0,0,0,0,0,0,0,0,0,0,0,0,0,0,0,0,0,0,0,0,0,0,0,0,0,0,0,0,0,0,0,0,0,0,0,0,0,0,0,0,0,0,0,0,0,0,0,0,0,0,-0.0214,-0.0214,0,-0.0133,-0.0132,-0.0131,-0.0068,-0.0068,-0.0068,-0.0067,0.0067,0.007,0.0073,0,0,0,0,0,0,0,0,0,0,0,0,0,-0.0262,-0.0262,-0.0215,-0.0214,-0.0213,-0.0134,-0.0132,-0.0131,-0.0069,-0.0068,-0.0068,-0.0067,0.0066,0.007,0.0074,0,0,0,0,0,0,0,0,0,0,0,0,0,-0.0215,-0.0261,-0.0215,-0.0174,-0.017,-0.0134,-0.0132,-0.0131,-0.0069,-0.0068,-0.0067,-0.0067,0.0065,0.0069,0.0074,0.0092,0,0,0.0089,0.0091,0,0,0,0,0,0,0,0,-0.0218,-0.0213,-0.0181,-0.0177,-0.0172,-0.0112,-0.01,-0.0054,-0.0069,-0.0105,-0.0067,-0.0067,0.001,0.0019,0.0036,0.0099,0.0104,0.0089,0.0092,0.0094,0.0096,0,0,0,0,0,0,0,-0.0221,-0.0216,-0.018,-0.018,-0.0175,-0.0142,-0.0134,-0.0091,-0.0049,-0.0101,-0.0097,-0.0092,0.0013,0.0031,0.004,0.0106,0.0089,0.0093,0.0096,0.0098,0.0204,0.0204,0,0,0,0,0,0,-0.0239,-0.022,-0.0183,-0.0178,-0.0196,-0.0142,-0.0133,-0.013,-0.005,-0.0039,-0.0093,-0.0089,0.0022,0.0034,0.0045,0.0075,0.0094,0.0099,0.0102,0.0204,0.0204,0.0204,0,0,0,0,0,0,-0.0241,-0.0237,-0.0186,-0.0198,-0.019,-0.0142,-0.0138,-0.0129,-0.011,-0.0045,-0.0031,-0.0084,0.0023,0.0038,0.0081,0.008,0.0101,0.0105,0.0204,0.0204,0.0204,0.0133,0,0,0,0,0,0,-0.0242,-0.0238,-0.0243,-0.02,-0.019,-0.0175,-0.0139,-0.0128,-0.0109,-0.0104,-0.0033,-0.002,0.0025,0.0074,0.0086,0.0087,0.0109,0.0204,0.0204,0.0204,0.0135,0.013,0.0126,0,0,0,0,0,-0.0244,-0.0259,-0.0244,-0.0239,-0.0198,-0.0176,-0.0168,-0.013,-0.011,-0.0109,-0.0057,-0.0022,0.0082,0.0077,0.0092,0.0095,0.0204,0.0204,0.0204,0.0137,0.0131,0.0126,0,0,0,0,0,0,-0.0283,-0.0253,-0.0235,-0.024,-0.0214,-0.0167,-0.0163,-0.0136,-0.0094,-0.0086,-0.0021,-0.0005,0.0032,0.0072,0.0066,0.0124,0.0148,0.0151,0.0093,0.0088,0.0083,0.0068,0.0113,0,0,0,0,0,-0.0296,-0.0297,-0.0261,-0.0264,-0.0254,-0.0209,-0.0195,-0.0169,-0.0128,-0.0109,-0.006,-0.0005,0.0042,0.007,0.0114,0.0148,0.0197,0.0159,0.0154,0.015,0.0148,0.0223,0.0225,0.0203,0.0203,0.0203,0,0,-0.0312,-0.0295,-0.0295,-0.0272,-0.0247,-0.0242,-0.0199,-0.0184,-0.0174,-0.0101,-0.0072,-0.0022,0.0046,0.0081,0.0102,0.0116,0.0181,0.0149,0.0145,0.0146,0.0223,0.0225,0.0227,0.0203,0.0203,0.0203,0,0,-0.035,-0.033,-0.0345,-0.0328,-0.0301,-0.0271,-0.0271,-0.0227,-0.0201,-0.0169,-0.0113,-0.0062,0.0003,0.0055,0.009,0.0088,0.015,0.0098,0.0069,0.0141,0.0144,0.0147,0.0205,0.0214,0.01,0.01,0.01,0,-0.0371,-0.0383,-0.0346,-0.0355,-0.0347,-0.0289,-0.0301,-0.0267,-0.0214,-0.0189,-0.0171,-0.0061,-0.0007,0.0053,0.005,0.0078,0.0123,0.0083,0.0135,0.0139,0.0143,0.0203,0.0213,0.0096,0.0097,0.0097,0.0097,0,-0.0419,-0.0426,-0.0434,-0.0424,-0.0409,-0.0411,-0.0362,-0.0339,-0.0299,-0.0255,-0.0193,-0.0116,-0.0047,-0.0024,0.0013,0.0068,0.009,0.0116,0.0147,0.0141,0.0204,0.0216,0.0091,0.0093,0.0094,0.0094,0,0,-0.0471,-0.047,-0.0472,-0.0481,-0.0447,-0.0441,-0.042,-0.038,-0.0357,-0.0294,-0.0256,-0.0171,-0.012,-0.0078,-0.0017,0.0045,0.011,0.0084,0.0089,0.0136,0.0262,0.029,0.0307,0.0145,0.0147,0.0148,0.0291,0,-0.052,-0.0563,-0.0538,-0.0565,-0.0581,-0.0522,-0.0505,-0.0456,-0.0397,-0.0344,-0.0248,-0.0191,-0.0142,-0.0108,-0.0038,0.0076,0.014,0.0068,0.0265,0.0271,0.0293,0.0321,0.0283,0.0409,0.0303,0.0306,0.0307,0,-0.0574,-0.0597,-0.064,-0.0638,-0.0636,-0.0636,-0.0591,-0.0567,-0.047,-0.042,-0.0337,-0.0258,-0.0154,-0.0117,0.0076,0.0027,0.0132,0.022,0.0228,0.0289,0.0322,0.04,0.0436,0.0328,0.0326,0.0325,0.0323,0,-0.064,-0.0664,-0.0703,-0.0705,-0.0691,-0.0689,-0.0671,-0.0593,-0.0563,-0.0465,-0.0422,-0.029,-0.0209,-0.0069,0.0111,0.0097,0.0326,0.0336,0.0461,0.0463,0.0488,0.049,0.0469,0.0469,0.0468,0.0468,0.0467,0,-0.0706,-0.0735,-0.074,-0.0765,-0.08,-0.0757,-0.0759,-0.0713,-0.0633,-0.0581,-0.0469,-0.039,-0.0192,-0.0036,0.0108,0.0329,0.0332,0.0465,0.0509,0.0461,0.0459,0.0433,0.0427,0.0473,0.0472,0.0471,0.047,0,-0.0774,-0.0776,-0.0827,-0.0834,-0.0838,-0.0862,-0.0836,-0.0825,-0.0736,-0.0661,-0.0632,-0.0447,-0.0234,-0.0036,0.0218,0.0338,0.0532,0.0605,0.0528,0.0561,0.0617,0.0605,0.0757,0.076,0.0762,0.0763,0.0765,0,-0.0815,-0.0849,-0.0892,-0.0928,-0.0937,-0.0958,-0.0966,-0.0893,-0.0859,-0.0681,-0.0643,-0.0429,-0.0249,0.0118,0.0356,0.0619,0.0611,0.0725,0.0694,0.0622,0.065,0.0636,0.0622,0.0698,0.0699,0.07,0.07,0,-0.0891,-0.0903,-0.0945,-0.1026,-0.1058,-0.1079,-0.107,-0.106,-0.0933,-0.084,-0.0654,-0.0495,-0.0119,0.0174,0.0499,0.064,0.0675,0.0746,0.0723,0.0622,0.0576,0.06,0.0587,0.0706,0.0705,0.0705,0.0704,0.0704,-0.0937,-0.0989,-0.1047,-0.1118,-0.1164,-0.1185,-0.1214,-0.115,-0.1081,-0.0923,-0.0673,-0.041,-0.0111,0.0341,0.0581,0.0774,0.0775,0.0814,0.0808,0.0803,0.0761,0.0721,0.0869,0.087,0.087,0.087,0.0871,0,-0.0992,-0.1048,-0.1132,-0.1222,-0.131,-0.127,-0.1273,-0.1264,-0.1192,-0.0961,-0.0724,-0.0315,0.0033,0.0314,0.0639,0.0853,0.0821,0.0867,0.0788,0.0782,0.0777,0.073,0.0832,0.0833,0.0833,0.0833,0,0,-0.1022,-0.1115,-0.1162,-0.1327,-0.1383,-0.1428,-0.1427,-0.1358,-0.1214,-0.0996,-0.0765,-0.0412,-0.0,0.0222,0.0502,0.0668,0.0655,0.0671,0.0681,0.0548,0.054,0.0731,0.0651,0,0,0,0,0]}],[{"header":{"parameterUnit":"m.s-1","parameterCategory":2,"la1":30.2991,"la2":30.254,"lo1":-89.0895,"lo2":-89.0444,"dy":0.0017,"dx":0.0017,"nx":28,"ny":28,"refTime":"2026-01-03T03:00:00:Z","depth":"4","parameterNumber":2,"parameterNumberName":"U-component_of_CURRENTS"},"data":[0,0,0,0,0,0,0,0,0,0,0,0,0,0,0,0,0,0,0,0,0,0,0,0,0,0,0,0,0,0,0,0,0,0,0,0,0,0,0,0,0,0,0,0,0,0,0,0,0,0,0,0,0,0,0,0,0,0,-0.1818,-0.1819,0,-0.19,-0.1901,-0.1902,-0.1948,-0.1948,-0.1948,-0.1948,-0.2018,-0.202,-0.2021,0,0,0,0,0,0,0,0,0,0,0,0,0,-0.1699,-0.1701,-0.1818,-0.1819,-0.182,-0.19,-0.1901,-0.1902,-0.1947,-0.1948,-0.1948,-0.1949,-0.2018,-0.202,-0.2022,0,0,0,0,0,0,0,0,0,0,0,0,0,-0.1761,-0.1701,-0.1818,-0.1854,-0.1858,-0.19,-0.1901,-0.1902,-0.1947,-0.1948,-0.1948,-0.1949,-0.2017,-0.2019,-0.2022,-0.2027,0,0,-0.2029,-0.203,0,0,0,0,0,0,0,0,-0.1757,-0.1765,-0.1847,-0.1852,-0.1856,-0.1916,-0.1885,-0.1944,-0.1947,-0.1912,-0.1948,-0.1949,-0.1984,-0.1989,-0.2001,-0.2031,-0.2034,-0.2029,-0.2031,-0.2032,-0.2032,0,0,0,0,0,0,0,-0.1753,-0.1762,-0.1849,-0.1849,-0.1854,-0.1866,-0.1875,-0.1896,-0.1942,-0.1915,-0.1919,-0.1931,-0.1986,-0.1998,-0.2003,-0.2035,-0.2029,-0.2031,-0.2033,-0.2034,-0.215,-0.2151,0,0,0,0,0,0,-0.1746,-0.1758,-0.1846,-0.1851,-0.1809,-0.1867,-0.1878,-0.1895,-0.1943,-0.1951,-0.193,-0.1932,-0.1994,-0.2,-0.2005,-0.2089,-0.2032,-0.2034,-0.2035,-0.2148,-0.215,-0.2152,0,0,0,0,0,0,-0.1744,-0.1754,-0.1843,-0.1807,-0.182,-0.1869,-0.1888,-0.1896,-0.1939,-0.1955,-0.1963,-0.1968,-0.1995,-0.2002,-0.2055,-0.2089,-0.2035,-0.2037,-0.2146,-0.2149,-0.2151,-0.2208,0,0,0,0,0,0,-0.174,-0.1752,-0.1776,-0.1807,-0.1822,-0.1889,-0.1888,-0.1897,-0.1944,-0.1949,-0.1989,-0.1994,-0.1996,-0.2052,-0.2058,-0.2091,-0.2039,-0.2144,-0.2147,-0.215,-0.2204,-0.2212,-0.2219,0,0,0,0,0,-0.1735,-0.1762,-0.1777,-0.1788,-0.1848,-0.1891,-0.19,-0.1934,-0.1946,-0.1973,-0.2002,-0.1995,-0.2076,-0.2056,-0.2062,-0.2097,-0.2143,-0.2146,-0.215,-0.2201,-0.2211,-0.2219,0,0,0,0,0,0,-0.1725,-0.177,-0.1787,-0.1828,-0.1867,-0.19,-0.1931,-0.1952,-0.1997,-0.201,-0.2019,-0.2027,-0.2085,-0.2085,-0.2062,-0.214,-0.2107,-0.2112,-0.2143,-0.2153,-0.216,-0.215,-0.2041,0,0,0,0,0,-0.1732,-0.1766,-0.1807,-0.1843,-0.1865,-0.1903,-0.193,-0.1957,-0.1993,-0.2015,-0.2043,-0.2072,-0.21,-0.2123,-0.2147,-0.2191,-0.2164,-0.2217,-0.2225,-0.2231,-0.2228,-0.2221,-0.2227,-0.2164,-0.2164,-0.2164,0,0,-0.1738,-0.1768,-0.1789,-0.1844,-0.1876,-0.1918,-0.1921,-0.1974,-0.2015,-0.2014,-0.2085,-0.2104,-0.2119,-0.217,-0.2195,-0.2178,-0.2235,-0.2236,-0.2241,-0.2235,-0.2225,-0.2231,-0.2236,-0.2167,-0.2166,-0.2166,0,0,-0.1757,-0.1795,-0.1828,-0.1865,-0.1924,-0.1949,-0.1971,-0.2025,-0.2059,-0.2122,-0.213,-0.217,-0.2222,-0.2235,-0.2246,-0.231,-0.2275,-0.2325,-0.2357,-0.235,-0.2354,-0.2358,-0.2324,-0.2324,-0.2328,-0.2328,-0.2328,0,-0.1765,-0.181,-0.1845,-0.1887,-0.1923,-0.1966,-0.2011,-0.2051,-0.2119,-0.2145,-0.2156,-0.2229,-0.2249,-0.2291,-0.2318,-0.2327,-0.2306,-0.232,-0.2358,-0.2361,-0.2363,-0.2328,-0.2327,-0.2331,-0.2331,-0.2331,-0.233,0,-0.1798,-0.185,-0.1874,-0.194,-0.1984,-0.2032,-0.2087,-0.2139,-0.2183,-0.2215,-0.228,-0.2305,-0.2341,-0.236,-0.2363,-0.2399,-0.2373,-0.2367,-0.2329,-0.2373,-0.2333,-0.2331,-0.2336,-0.2335,-0.2334,-0.2333,0,0,-0.1771,-0.1877,-0.1889,-0.193,-0.2019,-0.2053,-0.2128,-0.2194,-0.2233,-0.2299,-0.234,-0.2401,-0.2409,-0.2422,-0.243,-0.2433,-0.244,-0.2415,-0.2414,-0.2372,-0.2406,-0.2244,-0.2226,-0.2442,-0.2442,-0.2442,-0.2367,0,-0.1789,-0.187,-0.1923,-0.2006,-0.205,-0.2117,-0.2176,-0.2243,-0.2295,-0.2345,-0.2378,-0.2422,-0.2434,-0.2452,-0.2462,-0.2446,-0.2439,-0.2459,-0.2378,-0.2375,-0.2218,-0.222,-0.2443,-0.2365,-0.2365,-0.2364,-0.2364,0,-0.1794,-0.1851,-0.1935,-0.2035,-0.2061,-0.212,-0.2209,-0.227,-0.2344,-0.2381,-0.2429,-0.2449,-0.248,-0.2477,-0.2465,-0.2478,-0.245,-0.2429,-0.2425,-0.225,-0.221,-0.2316,-0.236,-0.236,-0.2361,-0.2361,-0.2361,0,-0.1737,-0.1854,-0.1921,-0.1959,-0.2079,-0.2131,-0.2196,-0.2282,-0.2325,-0.2401,-0.2425,-0.2466,-0.2478,-0.2468,-0.2439,-0.2456,-0.2395,-0.2408,-0.223,-0.2218,-0.2362,-0.2359,-0.2386,-0.2386,-0.2386,-0.2386,-0.2387,0,-0.1713,-0.1769,-0.1907,-0.1941,-0.2014,-0.2111,-0.2185,-0.2249,-0.233,-0.2353,-0.2437,-0.2433,-0.2477,-0.2451,-0.243,-0.2304,-0.2385,-0.2219,-0.2184,-0.2388,-0.2389,-0.2359,-0.2357,-0.2384,-0.2384,-0.2385,-0.2385,0,-0.1631,-0.1728,-0.1808,-0.1946,-0.199,-0.2042,-0.2171,-0.2196,-0.2302,-0.2328,-0.2351,-0.2407,-0.2358,-0.2365,-0.2323,-0.2258,-0.2178,-0.2115,-0.2308,-0.2289,-0.201,-0.2013,-0.1905,-0.1899,-0.1893,-0.1889,-0.1885,0,-0.1592,-0.1629,-0.1785,-0.182,-0.1888,-0.1984,-0.2023,-0.2158,-0.2172,-0.2276,-0.2247,-0.2261,-0.227,-0.207,-0.2111,-0.2027,-0.2013,-0.1964,-0.2011,-0.1981,-0.196,-0.1971,-0.198,-0.1876,-0.1875,-0.1873,-0.1872,0,-0.1503,-0.1576,-0.1637,-0.1704,-0.1765,-0.1819,-0.1889,-0.1892,-0.2011,-0.2143,-0.2077,-0.2049,-0.1981,-0.1938,-0.1876,-0.1831,-0.1996,-0.1908,-0.192,-0.1964,-0.1946,-0.1932,-0.1948,-0.1853,-0.1856,-0.1858,-0.1859,0,-0.1428,-0.1443,-0.1515,-0.1549,-0.1609,-0.1589,-0.1678,-0.1683,-0.1728,-0.1865,-0.1833,-0.1863,-0.1939,-0.1832,-0.178,-0.1712,-0.17,-0.1663,-0.1688,-0.171,-0.1682,-0.1633,-0.1395,0,0,0,0,0,-0.1337,-0.1318,-0.134,-0.1359,-0.14,-0.1428,-0.153,-0.1619,-0.176,-0.1656,-0.1745,-0.168,-0.1616,-0.1638,-0.1523,-0.1678,-0.1695,-0.154,-0.1665,-0.1749,-0.177,-0.1758,0,0,0,0,0,0,-0.1273,-0.1293,-0.1278,-0.1158,-0.1132,-0.1152,-0.1211,-0.1327,-0.1291,-0.1457,-0.1419,-0.1565,-0.151,-0.1628,-0.1476,-0.1484,-0.1526,-0.1587,-0.1582,-0.1736,-0.1756,-0.1774,-0.1768,0,0,0,0,0]},{"header":{"parameterUnit":"m.s-1","parameterCategory":2,"la1":30.2991,"la2":30.254,"lo1":-89.0895,"lo2":-89.0444,"dy":0.0017,"dx":0.0017,"nx":28,"ny":28,"refTime":"2026-01-03T03:00:00:Z","depth":"4","parameterNumber":3,"parameterNumberName":"V-component_of_CURRENTS"},"data":[0,0,0,0,0,0,0,0,0,0,0,0,0,0,0,0,0,0,0,0,0,0,0,0,0,0,0,0,0,0,0,0,0,0,0,0,0,0,0,0,0,0,0,0,0,0,0,0,0,0,0,0,0,0,0,0,0,0,-0.0199,-0.0199,0,-0.0144,-0.0143,-0.0142,-0.0099,-0.0099,-0.0099,-0.0098,0.0008,0.001,0.0013,0,0,0,0,0,0,0,0,0,0,0,0,0,-0.0226,-0.0226,-0.0199,-0.0199,-0.0198,-0.0144,-0.0143,-0.0142,-0.0099,-0.0099,-0.0098,-0.0098,0.0007,0.001,0.0013,0,0,0,0,0,0,0,0,0,0,0,0,0,-0.0195,-0.0225,-0.0199,-0.0172,-0.0169,-0.0144,-0.0143,-0.0142,-0.0099,-0.0099,-0.0098,-0.0098,0.0006,0.001,0.0014,0.0031,0,0,0.0026,0.0027,0,0,0,0,0,0,0,0,-0.0197,-0.0194,-0.0176,-0.0173,-0.017,-0.013,-0.0114,-0.0082,-0.0099,-0.0123,-0.0098,-0.0098,-0.0035,-0.0028,-0.0016,0.0036,0.004,0.0026,0.0028,0.003,0.0031,0,0,0,0,0,0,0,-0.0199,-0.0196,-0.0175,-0.0176,-0.0172,-0.0148,-0.0144,-0.0108,-0.0079,-0.0121,-0.0118,-0.0116,-0.0033,-0.002,-0.0013,0.0042,0.0026,0.0029,0.0032,0.0033,0.0121,0.0121,0,0,0,0,0,0,-0.0213,-0.0198,-0.0177,-0.0174,-0.0185,-0.0148,-0.0143,-0.0141,-0.0081,-0.0072,-0.0116,-0.0114,-0.0027,-0.0018,-0.0009,0.0016,0.003,0.0034,0.0036,0.0121,0.0121,0.0121,0,0,0,0,0,0,-0.0213,-0.0211,-0.0179,-0.0186,-0.0181,-0.0149,-0.0147,-0.0141,-0.0129,-0.0078,-0.0068,-0.0112,-0.0026,-0.0015,0.002,0.002,0.0035,0.0039,0.0121,0.0121,0.0121,0.0065,0,0,0,0,0,0,-0.0214,-0.0212,-0.0218,-0.0187,-0.0181,-0.0173,-0.0147,-0.014,-0.0129,-0.0125,-0.007,-0.006,-0.0025,0.0014,0.0024,0.0026,0.0042,0.0121,0.0121,0.0121,0.0067,0.0063,0.006,0,0,0,0,0,-0.0216,-0.0228,-0.0218,-0.0216,-0.0189,-0.0174,-0.0169,-0.0143,-0.0129,-0.0129,-0.0089,-0.0062,0.0021,0.0017,0.0029,0.0032,0.0121,0.0121,0.0121,0.0068,0.0064,0.006,0,0,0,0,0,0,-0.0243,-0.0224,-0.0213,-0.0219,-0.0202,-0.0168,-0.0168,-0.0148,-0.0117,-0.0112,-0.0061,-0.0048,-0.0019,0.0014,0.0008,0.0057,0.0076,0.0078,0.0031,0.0028,0.0024,0.0012,0.0045,0,0,0,0,0,-0.0253,-0.0257,-0.0232,-0.0237,-0.0232,-0.02,-0.0191,-0.0173,-0.0142,-0.0129,-0.0091,-0.0048,-0.001,0.0014,0.0049,0.0077,0.0114,0.0087,0.0083,0.008,0.0078,0.0135,0.0136,0.0121,0.0121,0.0121,0,0,-0.0266,-0.0256,-0.0258,-0.0244,-0.0227,-0.0225,-0.0193,-0.0185,-0.0178,-0.0121,-0.0101,-0.0061,-0.0006,0.0023,0.004,0.0052,0.0102,0.008,0.0077,0.0077,0.0135,0.0136,0.0138,0.0121,0.0121,0.0121,0,0,-0.0295,-0.0284,-0.0297,-0.0286,-0.0269,-0.0248,-0.0249,-0.0218,-0.02,-0.0176,-0.0132,-0.0092,-0.004,0.0003,0.0032,0.0032,0.0078,0.004,0.0019,0.0073,0.0075,0.0077,0.0117,0.0123,0.0043,0.0043,0.0043,0,-0.0312,-0.0323,-0.0298,-0.0306,-0.0303,-0.0263,-0.0273,-0.0248,-0.0209,-0.0193,-0.0179,-0.0092,-0.0047,0.0002,0.0002,0.0024,0.0056,0.0028,0.0068,0.0071,0.0074,0.0115,0.0122,0.004,0.004,0.0041,0.0041,0,-0.0346,-0.0356,-0.0363,-0.0358,-0.035,-0.0354,-0.0319,-0.0305,-0.0277,-0.0245,-0.0199,-0.0135,-0.0081,-0.006,-0.0028,0.0015,0.0031,0.0053,0.0076,0.0072,0.0115,0.0124,0.0036,0.0037,0.0038,0.0039,0,0,-0.0385,-0.0388,-0.0392,-0.0403,-0.038,-0.038,-0.0365,-0.034,-0.0329,-0.0278,-0.0255,-0.0181,-0.0142,-0.0106,-0.0055,-0.0004,0.0044,0.0027,0.0031,0.0061,0.0154,0.0131,0.0139,0.0072,0.0073,0.0074,0.0172,0,-0.0421,-0.0456,-0.044,-0.0467,-0.0482,-0.0444,-0.0435,-0.0403,-0.0363,-0.0328,-0.0248,-0.0207,-0.0159,-0.0133,-0.0074,0.0015,0.0065,0.0014,0.0159,0.0163,0.0139,0.0148,0.0078,0.0179,0.0181,0.0183,0.0184,0,-0.0458,-0.0479,-0.0518,-0.0528,-0.053,-0.0537,-0.0517,-0.0502,-0.0435,-0.04,-0.0336,-0.0272,-0.0187,-0.015,0.0004,-0.0032,0.0052,0.0123,0.0129,0.0134,0.0157,0.0188,0.02,0.0199,0.0198,0.0197,0.0196,0,-0.0504,-0.0531,-0.0569,-0.0573,-0.0574,-0.0584,-0.0578,-0.0529,-0.0516,-0.0445,-0.0422,-0.0311,-0.0251,-0.0132,0.0016,0.0011,0.0182,0.0198,0.0258,0.0258,0.0273,0.027,0.0303,0.0303,0.0303,0.0303,0.0302,0,-0.0545,-0.0577,-0.06,-0.0623,-0.0668,-0.0641,-0.0663,-0.0635,-0.0586,-0.0568,-0.0466,-0.0416,-0.0242,-0.0121,0.0004,0.0156,0.0179,0.0255,0.0284,0.0246,0.0239,0.0279,0.0275,0.0306,0.0306,0.0305,0.0304,0,-0.0586,-0.0599,-0.0652,-0.068,-0.0694,-0.0726,-0.0737,-0.0744,-0.0684,-0.0655,-0.0635,-0.0486,-0.0323,-0.0151,0.0056,0.0138,0.0286,0.0335,0.0274,0.0298,0.0325,0.0317,0.0404,0.0404,0.0404,0.0404,0.0404,0,-0.0608,-0.064,-0.0709,-0.0755,-0.0776,-0.0816,-0.0845,-0.0806,-0.0802,-0.0693,-0.068,-0.0516,-0.0403,-0.0125,0.0052,0.0283,0.0315,0.0373,0.0354,0.0317,0.0337,0.0329,0.0321,0.0404,0.0404,0.0404,0.0404,0,-0.0653,-0.0682,-0.073,-0.0829,-0.0886,-0.0946,-0.0974,-0.0974,-0.0908,-0.0844,-0.0702,-0.0538,-0.035,-0.0128,0.0055,0.022,0.0322,0.0375,0.0375,0.0358,0.0319,0.0336,0.0329,0.0405,0.0404,0.0404,0.0404,0,-0.0687,-0.0737,-0.081,-0.089,-0.0983,-0.106,-0.1063,-0.103,-0.1002,-0.085,-0.0798,-0.0567,-0.0409,-0.0159,0.0009,0.0167,0.0202,0.0228,0.0237,0.0239,0.0158,0.0083,0.0122,0,0,0,0,0,-0.0712,-0.0773,-0.0864,-0.0961,-0.106,-0.1105,-0.1143,-0.1123,-0.1041,-0.0949,-0.0864,-0.0676,-0.0384,-0.0244,-0.0089,-0.0025,0.0194,0.0155,0.0218,0.0406,0.0406,0.0336,0,0,0,0,0,0,-0.0733,-0.0822,-0.0869,-0.101,-0.108,-0.1182,-0.1213,-0.116,-0.1088,-0.0967,-0.0802,-0.0654,-0.037,-0.0458,-0.0083,-0.0032,0.0021,0.0318,0.0321,0.0406,0.0406,0.0405,0.0334,0,0,0,0,0]}]]